Year,Month,Day,Hour,Minute,Value (Times are PST for temperature in C)
2010,08,18,00,00,14.30
2010,08,18,00,01,14.20
2010,08,18,00,02,14.20
2010,08,18,00,03,14.20
2010,08,18,00,04,14.10
2010,08,18,00,05,14.10
2010,08,18,00,06,14.10
2010,08,18,00,07,14.10
2010,08,18,00,08,14.10
2010,08,18,00,09,14.10
2010,08,18,00,10,14.10
2010,08,18,00,11,14.10
2010,08,18,00,12,14.10
2010,08,18,00,13,14.10
2010,08,18,00,14,14.10
2010,08,18,00,15,14.10
2010,08,18,00,16,14.10
2010,08,18,00,17,14.10
2010,08,18,00,18,14.10
2010,08,18,00,19,14.10
2010,08,18,00,20,14.10
2010,08,18,00,21,14.10
2010,08,18,00,22,14.10
2010,08,18,00,23,14.20
2010,08,18,00,24,14.20
2010,08,18,00,25,14.20
2010,08,18,00,26,14.20
2010,08,18,00,27,14.20
2010,08,18,00,28,14.20
2010,08,18,00,29,14.20
2010,08,18,00,30,14.20
2010,08,18,00,31,14.20
2010,08,18,00,32,14.20
2010,08,18,00,33,14.20
2010,08,18,00,34,14.20
2010,08,18,00,35,14.20
2010,08,18,00,36,14.10
2010,08,18,00,37,14.10
2010,08,18,00,38,14.10
2010,08,18,00,39,14.00
2010,08,18,00,40,14.00
2010,08,18,00,41,14.00
2010,08,18,00,42,14.00
2010,08,18,00,43,13.90
2010,08,18,00,44,13.90
2010,08,18,00,45,13.90
2010,08,18,00,46,13.90
2010,08,18,00,47,13.90
2010,08,18,00,48,13.80
2010,08,18,00,49,13.80
2010,08,18,00,50,13.80
2010,08,18,00,51,13.80
2010,08,18,00,52,13.80
2010,08,18,00,53,13.80
2010,08,18,00,54,13.70
2010,08,18,00,55,13.70
2010,08,18,00,56,13.70
2010,08,18,00,57,13.70
2010,08,18,00,58,13.70
2010,08,18,00,59,13.70
2010,08,18,01,00,13.60
2010,08,18,01,01,13.60
2010,08,18,01,02,13.60
2010,08,18,01,03,13.60
2010,08,18,01,04,13.60
2010,08,18,01,05,13.60
2010,08,18,01,06,13.50
2010,08,18,01,07,13.50
2010,08,18,01,08,13.40
2010,08,18,01,09,13.40
2010,08,18,01,10,13.40
2010,08,18,01,11,13.40
2010,08,18,01,12,13.30
2010,08,18,01,13,13.30
2010,08,18,01,14,13.30
2010,08,18,01,15,13.30
2010,08,18,01,16,13.30
2010,08,18,01,17,13.30
2010,08,18,01,18,13.30
2010,08,18,01,19,13.30
2010,08,18,01,20,13.30
2010,08,18,01,21,13.30
2010,08,18,01,22,13.30
2010,08,18,01,23,13.30
2010,08,18,01,24,13.30
2010,08,18,01,25,13.30
2010,08,18,01,26,13.30
2010,08,18,01,27,13.30
2010,08,18,01,28,13.30
2010,08,18,01,29,13.30
2010,08,18,01,30,13.30
2010,08,18,01,31,13.30
2010,08,18,01,32,13.30
2010,08,18,01,33,13.30
2010,08,18,01,34,13.30
2010,08,18,01,35,13.30
2010,08,18,01,36,13.30
2010,08,18,01,37,13.30
2010,08,18,01,38,13.30
2010,08,18,01,39,13.30
2010,08,18,01,40,13.30
2010,08,18,01,41,13.30
2010,08,18,01,42,13.20
2010,08,18,01,43,13.20
2010,08,18,01,44,13.30
2010,08,18,01,45,13.30
2010,08,18,01,46,13.30
2010,08,18,01,47,13.20
2010,08,18,01,48,13.20
2010,08,18,01,49,13.20
2010,08,18,01,50,13.20
2010,08,18,01,51,13.10
2010,08,18,01,52,13.10
2010,08,18,01,53,13.10
2010,08,18,01,54,13.00
2010,08,18,01,55,13.00
2010,08,18,01,56,12.90
2010,08,18,01,57,12.90
2010,08,18,01,58,12.90
2010,08,18,01,59,12.90
2010,08,18,02,00,12.90
2010,08,18,02,01,12.90
2010,08,18,02,02,12.90
2010,08,18,02,03,12.90
2010,08,18,02,04,12.90
2010,08,18,02,05,12.90
2010,08,18,02,06,12.90
2010,08,18,02,07,12.90
2010,08,18,02,08,12.90
2010,08,18,02,09,12.90
2010,08,18,02,10,12.90
2010,08,18,02,11,12.80
2010,08,18,02,12,12.80
2010,08,18,02,13,12.80
2010,08,18,02,14,12.80
2010,08,18,02,15,12.80
2010,08,18,02,16,12.80
2010,08,18,02,17,12.80
2010,08,18,02,18,12.80
2010,08,18,02,19,12.80
2010,08,18,02,20,12.80
2010,08,18,02,21,12.80
2010,08,18,02,22,12.80
2010,08,18,02,23,12.80
2010,08,18,02,24,12.80
2010,08,18,02,25,12.80
2010,08,18,02,26,12.80
2010,08,18,02,27,12.80
2010,08,18,02,28,12.80
2010,08,18,02,29,12.80
2010,08,18,02,30,12.80
2010,08,18,02,31,12.80
2010,08,18,02,32,12.80
2010,08,18,02,33,12.80
2010,08,18,02,34,12.80
2010,08,18,02,35,12.80
2010,08,18,02,36,12.80
2010,08,18,02,37,12.80
2010,08,18,02,38,12.80
2010,08,18,02,39,12.80
2010,08,18,02,40,12.70
2010,08,18,02,41,12.70
2010,08,18,02,42,12.70
2010,08,18,02,43,12.70
2010,08,18,02,44,12.70
2010,08,18,02,45,12.70
2010,08,18,02,46,12.70
2010,08,18,02,47,12.70
2010,08,18,02,48,12.70
2010,08,18,02,49,12.70
2010,08,18,02,50,12.70
2010,08,18,02,51,12.70
2010,08,18,02,52,12.70
2010,08,18,02,53,12.70
2010,08,18,02,54,12.80
2010,08,18,02,55,12.80
2010,08,18,02,56,12.80
2010,08,18,02,57,12.80
2010,08,18,02,58,12.80
2010,08,18,02,59,12.80
2010,08,18,03,00,12.80
2010,08,18,03,01,12.80
2010,08,18,03,02,12.80
2010,08,18,03,03,12.80
2010,08,18,03,06,12.70
2010,08,18,03,07,12.70
2010,08,18,03,08,12.70
2010,08,18,03,09,12.70
2010,08,18,03,10,12.70
2010,08,18,03,11,12.70
2010,08,18,03,12,12.70
2010,08,18,03,13,12.70
2010,08,18,03,14,12.70
2010,08,18,03,15,12.70
2010,08,18,03,16,12.70
2010,08,18,03,17,12.70
2010,08,18,03,18,12.60
2010,08,18,03,19,12.60
2010,08,18,03,20,12.60
2010,08,18,03,21,12.60
2010,08,18,03,22,12.60
2010,08,18,03,23,12.60
2010,08,18,03,24,12.60
2010,08,18,03,25,12.60
2010,08,18,03,26,12.60
2010,08,18,03,27,12.60
2010,08,18,03,28,12.60
2010,08,18,03,29,12.60
2010,08,18,03,30,12.60
2010,08,18,03,31,12.60
2010,08,18,03,32,12.50
2010,08,18,03,33,12.50
2010,08,18,03,34,12.50
2010,08,18,03,35,12.50
2010,08,18,03,36,12.50
2010,08,18,03,37,12.50
2010,08,18,03,38,12.50
2010,08,18,03,39,12.50
2010,08,18,03,40,12.50
2010,08,18,03,41,12.50
2010,08,18,03,42,12.50
2010,08,18,03,43,12.50
2010,08,18,03,44,12.50
2010,08,18,03,45,12.40
2010,08,18,03,46,12.40
2010,08,18,03,47,12.40
2010,08,18,03,48,12.30
2010,08,18,03,49,12.30
2010,08,18,03,50,12.30
2010,08,18,03,51,12.30
2010,08,18,03,52,12.30
2010,08,18,03,53,12.30
2010,08,18,03,54,12.30
2010,08,18,03,55,12.30
2010,08,18,03,56,12.30
2010,08,18,03,57,12.20
2010,08,18,03,58,12.30
2010,08,18,03,59,12.30
2010,08,18,04,00,12.20
2010,08,18,04,01,12.20
2010,08,18,04,02,12.20
2010,08,18,04,03,12.20
2010,08,18,04,04,12.20
2010,08,18,04,05,12.20
2010,08,18,04,06,12.20
2010,08,18,04,07,12.20
2010,08,18,04,08,12.20
2010,08,18,04,09,12.20
2010,08,18,04,10,12.20
2010,08,18,04,11,12.10
2010,08,18,04,12,12.10
2010,08,18,04,13,12.10
2010,08,18,04,14,12.10
2010,08,18,04,15,12.10
2010,08,18,04,16,12.00
2010,08,18,04,17,12.00
2010,08,18,04,18,11.90
2010,08,18,04,19,11.90
2010,08,18,04,20,11.90
2010,08,18,04,21,11.90
2010,08,18,04,22,11.90
2010,08,18,04,23,11.90
2010,08,18,04,24,11.90
2010,08,18,04,25,11.80
2010,08,18,04,26,11.80
2010,08,18,04,27,11.80
2010,08,18,04,28,11.80
2010,08,18,04,29,11.80
2010,08,18,04,30,11.80
2010,08,18,04,31,11.80
2010,08,18,04,32,11.80
2010,08,18,04,33,11.80
2010,08,18,04,34,11.80
2010,08,18,04,35,11.80
2010,08,18,04,36,11.70
2010,08,18,04,37,11.70
2010,08,18,04,38,11.70
2010,08,18,04,39,11.70
2010,08,18,04,40,11.70
2010,08,18,04,41,11.70
2010,08,18,04,42,11.80
2010,08,18,04,43,11.80
2010,08,18,04,44,11.80
2010,08,18,04,45,11.80
2010,08,18,04,46,11.80
2010,08,18,04,47,11.80
2010,08,18,04,48,11.80
2010,08,18,04,49,11.80
2010,08,18,04,50,11.80
2010,08,18,04,51,11.80
2010,08,18,04,52,11.80
2010,08,18,04,53,11.80
2010,08,18,04,54,11.80
2010,08,18,04,55,11.70
2010,08,18,04,56,11.70
2010,08,18,04,57,11.70
2010,08,18,04,58,11.70
2010,08,18,04,59,11.70
2010,08,18,05,00,11.70
2010,08,18,05,01,11.70
2010,08,18,05,02,11.70
2010,08,18,05,03,11.60
2010,08,18,05,04,11.60
2010,08,18,05,05,11.60
2010,08,18,05,06,11.60
2010,08,18,05,07,11.60
2010,08,18,05,08,11.60
2010,08,18,05,09,11.50
2010,08,18,05,10,11.50
2010,08,18,05,11,11.50
2010,08,18,05,12,11.50
2010,08,18,05,13,11.60
2010,08,18,05,14,11.60
2010,08,18,05,15,11.60
2010,08,18,05,16,11.60
2010,08,18,05,17,11.60
2010,08,18,05,18,11.60
2010,08,18,05,19,11.60
2010,08,18,05,20,11.60
2010,08,18,05,21,11.60
2010,08,18,05,22,11.60
2010,08,18,05,23,11.60
2010,08,18,05,24,11.60
2010,08,18,05,25,11.60
2010,08,18,05,26,11.60
2010,08,18,05,27,11.60
2010,08,18,05,28,11.50
2010,08,18,05,29,11.50
2010,08,18,05,30,11.50
2010,08,18,05,31,11.50
2010,08,18,05,32,11.40
2010,08,18,05,33,11.40
2010,08,18,05,34,11.40
2010,08,18,05,35,11.40
2010,08,18,05,36,11.30
2010,08,18,05,37,11.30
2010,08,18,05,38,11.30
2010,08,18,05,39,11.30
2010,08,18,05,40,11.30
2010,08,18,05,41,11.30
2010,08,18,05,42,11.30
2010,08,18,05,43,11.30
2010,08,18,05,44,11.30
2010,08,18,05,45,11.30
2010,08,18,05,46,11.30
2010,08,18,05,47,11.30
2010,08,18,05,48,11.30
2010,08,18,05,49,11.30
2010,08,18,05,50,11.30
2010,08,18,05,51,11.30
2010,08,18,05,52,11.30
2010,08,18,05,53,11.30
2010,08,18,05,54,11.30
2010,08,18,05,55,11.30
2010,08,18,05,56,11.30
2010,08,18,05,57,11.30
2010,08,18,05,58,11.30
2010,08,18,05,59,11.30
2010,08,18,06,00,11.30
2010,08,18,06,01,11.30
2010,08,18,06,02,11.30
2010,08,18,06,03,11.20
2010,08,18,06,04,11.20
2010,08,18,06,05,11.20
2010,08,18,06,06,11.20
2010,08,18,06,07,11.20
2010,08,18,06,08,11.20
2010,08,18,06,09,11.20
2010,08,18,06,10,11.20
2010,08,18,06,11,11.20
2010,08,18,06,12,11.20
2010,08,18,06,13,11.30
2010,08,18,06,14,11.30
2010,08,18,06,15,11.30
2010,08,18,06,16,11.30
2010,08,18,06,17,11.30
2010,08,18,06,18,11.30
2010,08,18,06,19,11.30
2010,08,18,06,20,11.40
2010,08,18,06,21,11.40
2010,08,18,06,22,11.40
2010,08,18,06,23,11.40
2010,08,18,06,24,11.40
2010,08,18,06,25,11.40
2010,08,18,06,26,11.40
2010,08,18,06,27,11.40
2010,08,18,06,28,11.40
2010,08,18,06,29,11.50
2010,08,18,06,30,11.50
2010,08,18,06,31,11.50
2010,08,18,06,32,11.60
2010,08,18,06,33,11.60
2010,08,18,06,34,11.60
2010,08,18,06,35,11.60
2010,08,18,06,36,11.60
2010,08,18,06,37,11.60
2010,08,18,06,38,11.60
2010,08,18,06,39,11.60
2010,08,18,06,40,11.60
2010,08,18,06,41,11.60
2010,08,18,06,42,11.60
2010,08,18,06,43,11.60
2010,08,18,06,44,11.60
2010,08,18,06,45,11.60
2010,08,18,06,46,11.60
2010,08,18,06,47,11.60
2010,08,18,06,48,11.60
2010,08,18,06,49,11.60
2010,08,18,06,50,11.60
2010,08,18,06,51,11.60
2010,08,18,06,52,11.60
2010,08,18,06,53,11.60
2010,08,18,06,54,11.60
2010,08,18,06,55,11.60
2010,08,18,06,56,11.60
2010,08,18,06,57,11.50
2010,08,18,06,58,11.50
2010,08,18,06,59,11.50
2010,08,18,07,00,11.50
2010,08,18,07,01,11.50
2010,08,18,07,02,11.50
2010,08,18,07,03,11.40
2010,08,18,07,04,11.50
2010,08,18,07,05,11.40
2010,08,18,07,06,11.40
2010,08,18,07,07,11.40
2010,08,18,07,08,11.50
2010,08,18,07,09,11.50
2010,08,18,07,10,11.50
2010,08,18,07,11,11.50
2010,08,18,07,12,11.50
2010,08,18,07,13,11.60
2010,08,18,07,14,11.60
2010,08,18,07,15,11.60
2010,08,18,07,16,11.60
2010,08,18,07,17,11.60
2010,08,18,07,18,11.60
2010,08,18,07,19,11.70
2010,08,18,07,20,11.70
2010,08,18,07,21,11.70
2010,08,18,07,22,11.70
2010,08,18,07,23,11.70
2010,08,18,07,24,11.70
2010,08,18,07,25,11.70
2010,08,18,07,26,11.80
2010,08,18,07,27,11.80
2010,08,18,07,28,11.80
2010,08,18,07,29,11.80
2010,08,18,07,30,11.90
2010,08,18,07,31,11.90
2010,08,18,07,32,12.00
2010,08,18,07,33,12.10
2010,08,18,07,34,12.20
2010,08,18,07,35,12.30
2010,08,18,07,36,12.40
2010,08,18,07,37,12.50
2010,08,18,07,38,12.60
2010,08,18,07,39,12.70
2010,08,18,07,40,12.70
2010,08,18,07,41,12.80
2010,08,18,07,42,12.90
2010,08,18,07,43,13.00
2010,08,18,07,44,13.00
2010,08,18,07,45,13.10
2010,08,18,07,46,13.20
2010,08,18,07,47,13.20
2010,08,18,07,48,13.20
2010,08,18,07,49,13.20
2010,08,18,07,50,13.20
2010,08,18,07,51,13.20
2010,08,18,07,52,13.20
2010,08,18,07,53,13.20
2010,08,18,07,54,13.10
2010,08,18,07,55,13.10
2010,08,18,07,56,13.10
2010,08,18,07,57,13.00
2010,08,18,07,58,13.00
2010,08,18,07,59,12.90
2010,08,18,08,00,12.90
2010,08,18,08,01,12.90
2010,08,18,08,02,12.90
2010,08,18,08,03,12.90
2010,08,18,08,04,12.90
2010,08,18,08,05,12.90
2010,08,18,08,06,12.90
2010,08,18,08,07,13.00
2010,08,18,08,08,13.00
2010,08,18,08,09,13.00
2010,08,18,08,10,13.10
2010,08,18,08,11,13.10
2010,08,18,08,12,13.10
2010,08,18,08,13,13.10
2010,08,18,08,14,13.10
2010,08,18,08,15,13.10
2010,08,18,08,16,13.10
2010,08,18,08,17,13.10
2010,08,18,08,18,13.20
2010,08,18,08,19,13.20
2010,08,18,08,20,13.10
2010,08,18,08,21,13.10
2010,08,18,08,22,13.10
2010,08,18,08,23,13.10
2010,08,18,08,24,13.10
2010,08,18,08,25,13.20
2010,08,18,08,26,13.20
2010,08,18,08,27,13.20
2010,08,18,08,28,13.20
2010,08,18,08,29,13.30
2010,08,18,08,30,13.30
2010,08,18,08,31,13.30
2010,08,18,08,32,13.30
2010,08,18,08,33,13.30
2010,08,18,08,34,13.40
2010,08,18,08,35,13.40
2010,08,18,08,36,13.40
2010,08,18,08,37,13.40
2010,08,18,08,38,13.40
2010,08,18,08,39,13.40
2010,08,18,08,40,13.40
2010,08,18,08,41,13.50
2010,08,18,08,42,13.50
2010,08,18,08,43,13.50
2010,08,18,08,44,13.50
2010,08,18,08,45,13.60
2010,08,18,08,46,13.60
2010,08,18,08,47,13.60
2010,08,18,08,48,13.60
2010,08,18,08,49,13.60
2010,08,18,08,50,13.70
2010,08,18,08,51,13.70
2010,08,18,08,52,13.70
2010,08,18,08,53,13.70
2010,08,18,08,54,13.70
2010,08,18,08,55,13.70
2010,08,18,08,56,13.70
2010,08,18,08,57,13.70
2010,08,18,08,58,13.70
2010,08,18,08,59,13.70
2010,08,18,09,00,13.70
2010,08,18,09,01,13.80
2010,08,18,09,02,13.80
2010,08,18,09,03,13.80
2010,08,18,09,04,13.80
2010,08,18,09,05,13.80
2010,08,18,09,06,13.80
2010,08,18,09,07,13.80
2010,08,18,09,08,13.80
2010,08,18,09,09,13.80
2010,08,18,09,10,13.80
2010,08,18,09,11,13.80
2010,08,18,09,12,13.80
2010,08,18,09,13,13.80
2010,08,18,09,14,13.80
2010,08,18,09,15,13.80
2010,08,18,09,16,13.80
2010,08,18,09,17,13.80
2010,08,18,09,18,13.80
2010,08,18,09,19,13.80
2010,08,18,09,20,13.80
2010,08,18,09,21,13.80
2010,08,18,09,22,13.80
2010,08,18,09,23,13.80
2010,08,18,09,24,13.90
2010,08,18,09,25,13.90
2010,08,18,09,26,13.90
2010,08,18,09,27,14.00
2010,08,18,09,28,14.00
2010,08,18,09,29,14.10
2010,08,18,09,30,14.10
2010,08,18,09,31,14.10
2010,08,18,09,32,14.20
2010,08,18,09,33,14.20
2010,08,18,09,34,14.20
2010,08,18,09,35,14.10
2010,08,18,09,36,14.20
2010,08,18,09,37,14.20
2010,08,18,09,38,14.20
2010,08,18,09,39,14.20
2010,08,18,09,40,14.20
2010,08,18,09,41,14.20
2010,08,18,09,42,14.30
2010,08,18,09,43,14.30
2010,08,18,09,44,14.30
2010,08,18,09,45,14.30
2010,08,18,09,46,14.40
2010,08,18,09,47,14.40
2010,08,18,09,48,14.40
2010,08,18,09,49,14.50
2010,08,18,09,50,14.50
2010,08,18,09,51,14.60
2010,08,18,09,52,14.60
2010,08,18,09,53,14.70
2010,08,18,09,54,14.70
2010,08,18,09,55,14.70
2010,08,18,09,56,14.80
2010,08,18,09,57,14.80
2010,08,18,09,58,14.80
2010,08,18,09,59,14.80
2010,08,18,10,00,14.80
2010,08,18,10,01,14.90
2010,08,18,10,02,15.00
2010,08,18,10,03,15.10
2010,08,18,10,04,15.20
2010,08,18,10,05,15.30
2010,08,18,10,06,15.30
2010,08,18,10,07,15.40
2010,08,18,10,08,15.40
2010,08,18,10,09,15.50
2010,08,18,10,10,15.50
2010,08,18,10,11,15.60
2010,08,18,10,12,15.60
2010,08,18,10,13,15.50
2010,08,18,10,14,15.50
2010,08,18,10,15,15.60
2010,08,18,10,16,15.60
2010,08,18,10,17,15.70
2010,08,18,10,18,15.70
2010,08,18,10,19,15.80
2010,08,18,10,20,15.80
2010,08,18,10,21,15.90
2010,08,18,10,22,16.00
2010,08,18,10,23,16.00
2010,08,18,10,24,16.10
2010,08,18,10,25,16.20
2010,08,18,10,26,16.20
2010,08,18,10,27,16.20
2010,08,18,10,28,16.20
2010,08,18,10,29,16.30
2010,08,18,10,30,16.30
2010,08,18,10,31,16.30
2010,08,18,10,32,16.30
2010,08,18,10,33,16.40
2010,08,18,10,34,16.30
2010,08,18,10,35,16.30
2010,08,18,10,36,16.40
2010,08,18,10,37,16.50
2010,08,18,10,38,16.60
2010,08,18,10,39,16.60
2010,08,18,10,40,16.60
2010,08,18,10,41,16.60
2010,08,18,10,42,16.60
2010,08,18,10,43,16.70
2010,08,18,10,44,16.70
2010,08,18,10,45,16.60
2010,08,18,10,46,16.60
2010,08,18,10,47,16.70
2010,08,18,10,48,16.70
2010,08,18,10,49,16.70
2010,08,18,10,50,16.70
2010,08,18,10,51,16.80
2010,08,18,10,52,16.80
2010,08,18,10,53,16.90
2010,08,18,10,54,16.90
2010,08,18,10,55,16.90
2010,08,18,10,56,17.00
2010,08,18,10,57,17.00
2010,08,18,10,58,17.10
2010,08,18,10,59,17.20
2010,08,18,11,00,17.30
2010,08,18,11,01,17.30
2010,08,18,11,02,17.30
2010,08,18,11,03,17.40
2010,08,18,11,04,17.40
2010,08,18,11,05,17.40
2010,08,18,11,06,17.40
2010,08,18,11,07,17.40
2010,08,18,11,08,17.40
2010,08,18,11,09,17.40
2010,08,18,11,10,17.40
2010,08,18,11,11,17.50
2010,08,18,11,12,17.60
2010,08,18,11,13,17.60
2010,08,18,11,14,17.60
2010,08,18,11,15,17.60
2010,08,18,11,16,17.60
2010,08,18,11,17,17.60
2010,08,18,11,18,17.70
2010,08,18,11,19,17.70
2010,08,18,11,20,17.70
2010,08,18,11,21,17.80
2010,08,18,11,22,17.80
2010,08,18,11,23,17.90
2010,08,18,11,24,18.00
2010,08,18,11,25,18.10
2010,08,18,11,26,18.10
2010,08,18,11,27,18.20
2010,08,18,11,28,18.20
2010,08,18,11,29,18.20
2010,08,18,11,30,18.10
2010,08,18,11,31,18.00
2010,08,18,11,32,18.10
2010,08,18,11,33,18.10
2010,08,18,11,34,18.10
2010,08,18,11,35,18.10
2010,08,18,11,36,18.10
2010,08,18,11,37,18.20
2010,08,18,11,38,18.20
2010,08,18,11,39,18.30
2010,08,18,11,40,18.30
2010,08,18,11,41,18.30
2010,08,18,11,42,18.40
2010,08,18,11,43,18.50
2010,08,18,11,44,18.50
2010,08,18,11,45,18.60
2010,08,18,11,46,18.70
2010,08,18,11,47,18.80
2010,08,18,11,48,18.80
2010,08,18,11,49,18.80
2010,08,18,11,50,18.80
2010,08,18,11,51,18.90
2010,08,18,11,52,19.00
2010,08,18,11,53,19.10
2010,08,18,11,54,19.20
2010,08,18,11,55,19.20
2010,08,18,11,56,19.20
2010,08,18,11,57,19.30
2010,08,18,11,58,19.30
2010,08,18,11,59,19.40
2010,08,18,12,00,19.40
2010,08,18,12,01,19.40
2010,08,18,12,02,19.50
2010,08,18,12,03,19.60
2010,08,18,12,04,19.60
2010,08,18,12,05,19.70
2010,08,18,12,06,19.70
2010,08,18,12,07,19.80
2010,08,18,12,08,19.80
2010,08,18,12,09,19.70
2010,08,18,12,10,19.60
2010,08,18,12,11,19.60
2010,08,18,12,12,19.60
2010,08,18,12,13,19.60
2010,08,18,12,14,19.70
2010,08,18,12,15,19.70
2010,08,18,12,16,19.80
2010,08,18,12,17,19.90
2010,08,18,12,18,19.90
2010,08,18,12,19,20.00
2010,08,18,12,20,20.10
2010,08,18,12,21,20.10
2010,08,18,12,22,20.20
2010,08,18,12,23,20.20
2010,08,18,12,24,20.30
2010,08,18,12,25,20.30
2010,08,18,12,26,20.30
2010,08,18,12,27,20.40
2010,08,18,12,28,20.50
2010,08,18,12,29,20.50
2010,08,18,12,30,20.60
2010,08,18,12,31,20.60
2010,08,18,12,32,20.70
2010,08,18,12,33,20.80
2010,08,18,12,34,20.90
2010,08,18,12,35,21.00
2010,08,18,12,36,20.90
2010,08,18,12,37,20.80
2010,08,18,12,38,20.80
2010,08,18,12,39,20.80
2010,08,18,12,40,20.80
2010,08,18,12,41,20.90
2010,08,18,12,42,21.10
2010,08,18,12,43,21.20
2010,08,18,12,44,21.20
2010,08,18,12,45,21.10
2010,08,18,12,46,21.10
2010,08,18,12,47,21.10
2010,08,18,12,48,21.00
2010,08,18,12,49,21.00
2010,08,18,12,50,21.00
2010,08,18,12,51,21.10
2010,08,18,12,52,21.10
2010,08,18,12,53,21.20
2010,08,18,12,54,21.30
2010,08,18,12,55,21.40
2010,08,18,12,56,21.50
2010,08,18,12,57,21.40
2010,08,18,12,58,21.40
2010,08,18,12,59,21.50
2010,08,18,13,00,21.50
2010,08,18,13,01,21.40
2010,08,18,13,02,21.30
2010,08,18,13,03,21.30
2010,08,18,13,04,21.30
2010,08,18,13,05,21.30
2010,08,18,13,06,21.50
2010,08,18,13,07,21.70
2010,08,18,13,08,21.90
2010,08,18,13,09,22.00
2010,08,18,13,10,22.10
2010,08,18,13,11,22.20
2010,08,18,13,12,22.10
2010,08,18,13,13,22.00
2010,08,18,13,14,22.00
2010,08,18,13,15,22.00
2010,08,18,13,16,22.00
2010,08,18,13,17,22.10
2010,08,18,13,18,22.10
2010,08,18,13,19,22.00
2010,08,18,13,20,21.90
2010,08,18,13,21,21.90
2010,08,18,13,22,21.90
2010,08,18,13,23,22.00
2010,08,18,13,24,22.00
2010,08,18,13,25,21.90
2010,08,18,13,26,21.90
2010,08,18,13,27,22.00
2010,08,18,13,28,22.10
2010,08,18,13,29,22.20
2010,08,18,13,30,22.30
2010,08,18,13,31,22.30
2010,08,18,13,32,22.30
2010,08,18,13,33,22.30
2010,08,18,13,34,22.40
2010,08,18,13,35,22.40
2010,08,18,13,36,22.50
2010,08,18,13,37,22.60
2010,08,18,13,38,22.60
2010,08,18,13,39,22.70
2010,08,18,13,40,22.60
2010,08,18,13,41,22.60
2010,08,18,13,42,22.50
2010,08,18,13,43,22.40
2010,08,18,13,44,22.30
2010,08,18,13,45,22.30
2010,08,18,13,46,22.40
2010,08,18,13,47,22.50
2010,08,18,13,48,22.50
2010,08,18,13,49,22.50
2010,08,18,13,50,22.60
2010,08,18,13,51,22.60
2010,08,18,13,52,22.70
2010,08,18,13,53,22.60
2010,08,18,13,54,22.60
2010,08,18,13,55,22.60
2010,08,18,13,56,22.70
2010,08,18,13,57,22.70
2010,08,18,13,58,22.80
2010,08,18,13,59,23.00
2010,08,18,14,00,23.10
2010,08,18,14,01,23.20
2010,08,18,14,02,23.10
2010,08,18,14,03,23.10
2010,08,18,14,04,23.20
2010,08,18,14,05,23.20
2010,08,18,14,06,23.20
2010,08,18,14,07,23.30
2010,08,18,14,08,23.30
2010,08,18,14,09,23.30
2010,08,18,14,10,23.30
2010,08,18,14,11,23.40
2010,08,18,14,12,23.40
2010,08,18,14,13,23.40
2010,08,18,14,14,23.40
2010,08,18,14,15,23.40
2010,08,18,14,16,23.50
2010,08,18,14,17,23.60
2010,08,18,14,18,23.70
2010,08,18,14,19,23.70
2010,08,18,14,20,23.80
2010,08,18,14,21,23.90
2010,08,18,14,22,24.00
2010,08,18,14,23,23.90
2010,08,18,14,24,23.90
2010,08,18,14,25,23.90
2010,08,18,14,26,23.80
2010,08,18,14,27,23.80
2010,08,18,14,28,23.80
2010,08,18,14,29,23.80
2010,08,18,14,30,23.80
2010,08,18,14,31,23.80
2010,08,18,14,32,23.80
2010,08,18,14,33,23.80
2010,08,18,14,34,23.70
2010,08,18,14,35,23.70
2010,08,18,14,36,23.80
2010,08,18,14,37,23.80
2010,08,18,14,38,23.80
2010,08,18,14,39,23.90
2010,08,18,14,40,24.00
2010,08,18,14,41,24.10
2010,08,18,14,42,24.20
2010,08,18,14,43,24.20
2010,08,18,14,44,24.20
2010,08,18,14,45,24.10
2010,08,18,14,46,24.10
2010,08,18,14,47,24.10
2010,08,18,14,48,24.10
2010,08,18,14,49,24.20
2010,08,18,14,50,24.30
2010,08,18,14,51,24.30
2010,08,18,14,52,24.30
2010,08,18,14,53,24.30
2010,08,18,14,54,24.40
2010,08,18,14,55,24.40
2010,08,18,14,56,24.50
2010,08,18,14,57,24.60
2010,08,18,14,58,24.70
2010,08,18,14,59,24.70
2010,08,18,15,00,24.80
2010,08,18,15,01,24.90
2010,08,18,15,02,25.00
2010,08,18,15,03,25.20
2010,08,18,15,04,25.30
2010,08,18,15,05,25.30
2010,08,18,15,06,25.30
2010,08,18,15,07,25.30
2010,08,18,15,08,25.30
2010,08,18,15,09,25.20
2010,08,18,15,10,25.00
2010,08,18,15,11,24.90
2010,08,18,15,12,24.80
2010,08,18,15,13,24.80
2010,08,18,15,14,24.80
2010,08,18,15,15,24.80
2010,08,18,15,16,24.80
2010,08,18,15,17,24.80
2010,08,18,15,18,24.90
2010,08,18,15,19,24.90
2010,08,18,15,20,24.80
2010,08,18,15,21,24.80
2010,08,18,15,22,24.80
2010,08,18,15,23,24.90
2010,08,18,15,24,25.00
2010,08,18,15,25,25.10
2010,08,18,15,26,25.20
2010,08,18,15,27,25.20
2010,08,18,15,28,25.20
2010,08,18,15,29,25.10
2010,08,18,15,30,25.10
2010,08,18,15,31,25.10
2010,08,18,15,32,25.10
2010,08,18,15,33,25.10
2010,08,18,15,34,25.00
2010,08,18,15,35,25.00
2010,08,18,15,36,25.00
2010,08,18,15,37,25.10
2010,08,18,15,38,25.10
2010,08,18,15,39,25.00
2010,08,18,15,40,25.10
2010,08,18,15,41,25.10
2010,08,18,15,42,25.10
2010,08,18,15,43,25.10
2010,08,18,15,44,25.10
2010,08,18,15,45,25.20
2010,08,18,15,46,25.30
2010,08,18,15,47,25.40
2010,08,18,15,48,25.50
2010,08,18,15,49,25.60
2010,08,18,15,50,25.70
2010,08,18,15,51,25.60
2010,08,18,15,52,25.60
2010,08,18,15,53,25.60
2010,08,18,15,54,25.60
2010,08,18,15,55,25.60
2010,08,18,15,56,25.50
2010,08,18,15,57,25.50
2010,08,18,15,58,25.40
2010,08,18,15,59,25.40
2010,08,18,16,00,25.40
2010,08,18,16,01,25.40
2010,08,18,16,02,25.40
2010,08,18,16,03,25.50
2010,08,18,16,04,25.50
2010,08,18,16,05,25.50
2010,08,18,16,06,25.50
2010,08,18,16,07,25.50
2010,08,18,16,08,25.50
2010,08,18,16,09,25.40
2010,08,18,16,10,25.30
2010,08,18,16,11,25.30
2010,08,18,16,12,25.30
2010,08,18,16,13,25.40
2010,08,18,16,14,25.50
2010,08,18,16,15,25.60
2010,08,18,16,16,25.70
2010,08,18,16,17,25.70
2010,08,18,16,18,25.80
2010,08,18,16,19,25.80
2010,08,18,16,20,25.90
2010,08,18,16,21,25.90
2010,08,18,16,22,26.00
2010,08,18,16,23,26.00
2010,08,18,16,24,26.00
2010,08,18,16,25,25.90
2010,08,18,16,26,25.80
2010,08,18,16,27,25.80
2010,08,18,16,28,25.70
2010,08,18,16,29,25.70
2010,08,18,16,30,25.60
2010,08,18,16,31,25.60
2010,08,18,16,32,25.70
2010,08,18,16,33,25.80
2010,08,18,16,34,25.80
2010,08,18,16,35,25.80
2010,08,18,16,36,25.70
2010,08,18,16,37,25.70
2010,08,18,16,38,25.70
2010,08,18,16,39,25.80
2010,08,18,16,40,25.90
2010,08,18,16,41,25.90
2010,08,18,16,42,25.90
2010,08,18,16,43,25.90
2010,08,18,16,44,25.70
2010,08,18,16,45,25.60
2010,08,18,16,46,25.50
2010,08,18,16,47,25.50
2010,08,18,16,48,25.40
2010,08,18,16,49,25.40
2010,08,18,16,50,25.30
2010,08,18,16,51,25.30
2010,08,18,16,52,25.30
2010,08,18,16,53,25.30
2010,08,18,16,54,25.30
2010,08,18,16,55,25.30
2010,08,18,16,56,25.30
2010,08,18,16,57,25.30
2010,08,18,16,58,25.30
2010,08,18,16,59,25.20
2010,08,18,17,00,25.20
2010,08,18,17,01,25.20
2010,08,18,17,02,25.10
2010,08,18,17,03,25.10
2010,08,18,17,04,25.10
2010,08,18,17,05,25.20
2010,08,18,17,06,25.20
2010,08,18,17,07,25.20
2010,08,18,17,08,25.20
2010,08,18,17,09,25.20
2010,08,18,17,10,25.20
2010,08,18,17,11,25.30
2010,08,18,17,12,25.30
2010,08,18,17,13,25.30
2010,08,18,17,14,25.30
2010,08,18,17,15,25.30
2010,08,18,17,16,25.30
2010,08,18,17,17,25.30
2010,08,18,17,18,25.30
2010,08,18,17,19,25.30
2010,08,18,17,20,25.30
2010,08,18,17,21,25.30